Weather in St. Louis

United States     38˚38′08″N   90˚14′26″W
temp.,
°C
wind,
m/s
gust,
m/s
humid.,
%
clouds,
%
prec.,
mm/h
press.,
hPa
HPBL,
m
2 december, wed
wed200:00+1˚sse114715 0.0 102624
03:00sse114523 0.0 102728
06:00se124662 0.0 102942
09:00+2˚se233956 0.0 1030206
12:00+6˚se233361 0.0 1029382
15:00+7˚se2338100 0.0 1027348
18:00+4˚ese124958 0.0 102832
21:00+3˚e125634 0.0 102829
3 december, thu
thu300:00+3˚s125766 0.0 1028112
03:00+3˚sse1165100 0.0 102679
06:00+2˚ssw126978 0.0 102669
09:00+4˚sw246582 0.0 1026292
12:00+4˚ssw137990 0.3 1024279
15:00+5˚ssw3689100 0.0 1022401
18:00+5˚ssw2587100 0.0 1022315
21:00+3˚ssw358945 0.0 1021191
4 december, fri
fri400:00+3˚ssw249228 0.0 1021161
03:00+2˚wsw24950 0.0 1020135
06:00+2˚w24950 0.0 1019149
09:00+4˚sw24820 0.0 1019267
12:00+8˚w24550 0.0 1017543
15:00+9˚w24490 0.0 1015763
18:00+7˚wnw12621 0.0 101627
21:00+6˚wnw256791 0.0 1016139
5 december, sat
sat500:00+4˚nnw376885 0.0 1017259
03:00+2˚nnw36710 0.0 1018212
06:00+1˚nnw36760 0.0 1020210
09:00+2˚nnw24710 0.0 1022283
12:00+6˚nnw34560 0.0 1021635
15:00+8˚nnw24490 0.0 1020789
18:00+5˚nne11610 0.0 102122
21:00+4˚sse116446 0.0 102122
6 december, sun
sun600:00+4˚sw116823 0.0 102024
03:00+3˚w12716 0.0 101934
06:00+2˚wnw238120 0.0 1018117
09:00+3˚wnw24770 0.0 1019261
12:00+7˚nw356514 0.0 1017679
15:00+7˚nw575647 0.0 1016787
18:00+5˚nw496523 0.0 1017558
21:00+4˚nw411700 0.0 1018516